Owensboro, KY

7:01 PM CDT on August 30, 2016 (GMT -0500)
Owensboro-Daviess County

Weather History for KOWB - December, 2012

Change the Weather History Date:

Thursday, December 13, 2012

  Actual Average Record
Temperature  
Mean Temperature 38 °F -  
Max Temperature 50 °F 47 °F 70 °F (2015)
Min Temperature 26 °F 31 °F -7 °F (1962)
Degree Days  
Heating Degree Days 27    
Moisture  
Dew Point 27 °F    
Average Humidity 72    
Maximum Humidity 92    
Minimum Humidity 43    
Precipitation  
Precipitation 0.00 in - - ()
Sea Level Pressure  
Sea Level Pressure 30.37 in    
Wind  
Wind Speed 2 mph (South)    
Max Wind Speed 7 mph    
Max Gust Speed -    
Visibility 10 miles    
Events      
Averages and records for this station are not official NWS values.
T = Trace of Precipitation, MM = Missing Value Source: NWS Daily Summary

Daily Weather History Graph

Daily Weather History Graph

Search for Another Location

Airport or City:

Trip Planner

Search our weather history database for the weather conditions in past years. The results will help you decide how hot, cold, wet, or windy it might be!

Date:

Astronomy

Dec. 13, 2012 Rise Set
Actual Time 6:55 AM CST 4:30 PM CST
Civil Twilight 6:26 AM CST 4:59 PM CST
Nautical Twilight 5:53 AM CST 5:32 PM CST
Astronomical Twilight 5:21 AM CST 6:04 PM CST
Moon 7:04 AM CST (12/13) 5:12 PM CST (12/13)
Length of Visible Light 10h 33m
Length of Day
9h 34m
New Moon, 0% of the Moon is Illuminated
Dec 13
New Moon
Dec 19
First Quarter
Dec 28
Full
Jan 4
Last Quarter
Jan 11
New

Hourly Weather History & Observations

Time (CST) Temp. Windchill Dew Point Humidity Pressure Visibility Wind Dir Wind Speed Gust Speed Precip Events Conditions
12:56 AM 28.0 °F - 26.1 °F 92% 30.38 in 10.0 mi Calm Calm - N/A   Clear
1:56 AM 28.0 °F - 25.2 °F 89% 30.39 in 10.0 mi Calm Calm - N/A   Clear
2:56 AM 29.1 °F 25.4 °F 25.2 °F 85% 30.38 in 10.0 mi SE 3.5 mph - N/A   Clear
3:56 AM 28.0 °F 22.8 °F 24.1 °F 85% 30.42 in 10.0 mi NW 4.6 mph - N/A   Clear
4:56 AM 26.1 °F - 23.0 °F 88% 30.41 in 10.0 mi Calm Calm - N/A   Clear
5:56 AM 27.1 °F - 24.1 °F 88% 30.42 in 10.0 mi Calm Calm - N/A   Clear
6:56 AM 26.1 °F - 23.0 °F 88% 30.42 in 10.0 mi Calm Calm - N/A   Clear
7:56 AM 28.0 °F - 25.2 °F 89% 30.44 in 10.0 mi Calm Calm - N/A   Clear
8:56 AM 34.0 °F - 30.0 °F 85% 30.44 in 9.0 mi Calm Calm - N/A   Clear
9:56 AM 38.8 °F 34.6 °F 30.0 °F 71% 30.44 in 10.0 mi SSE 5.8 mph - N/A   Clear
10:56 AM 43.0 °F 38.8 °F 32.9 °F 68% 30.41 in 10.0 mi South 6.9 mph - N/A   Clear
11:56 AM 46.9 °F - 31.1 °F 54% 30.38 in 10.0 mi South 6.9 mph - N/A   Clear
12:56 PM 48.9 °F - 31.1 °F 50% 30.35 in 10.0 mi SSW 5.8 mph - N/A   Clear
1:56 PM 50.9 °F - 29.1 °F 43% 30.33 in 10.0 mi SSW 5.8 mph - N/A   Clear
2:56 PM 50.9 °F - 31.1 °F 47% 30.32 in 10.0 mi SSW 5.8 mph - N/A   Clear
3:56 PM 48.9 °F - 30.0 °F 48% 30.31 in 10.0 mi South 5.8 mph - N/A   Clear
6:56 PM 39.9 °F 37.8 °F 27.1 °F 60% 30.31 in 10.0 mi SSE 3.5 mph - N/A   Clear
7:56 PM 36.9 °F 34.3 °F 27.1 °F 68% 30.30 in 10.0 mi SSE 3.5 mph - N/A   Clear
8:56 PM 36.0 °F 32.1 °F 26.1 °F 67% 30.30 in 10.0 mi SSE 4.6 mph - N/A   Clear
9:56 PM 34.0 °F 31.0 °F 25.2 °F 70% 30.30 in 10.0 mi SSE 3.5 mph - N/A   Clear
10:56 PM 34.9 °F - 25.2 °F 68% 30.30 in 10.0 mi Calm Calm - N/A   Clear
11:56 PM 34.0 °F 28.8 °F 26.1 °F 73% 30.30 in 10.0 mi SSE 5.8 mph - N/A   Clear